Home   Weather   Wertheim   Past weeks

Flag for Germany Past Weather in Wertheim, Baden-Württemberg, Germany — Yesterday and Last 2 Weeks

Now
36 °F

Passing clouds.


Feels Like: 36 °F
Forecast: 29 / 58 °F
Wind: 2 mph from Southwest

Location: Niederstetten

Current Time: Apr 24, 2017 at 12:13:14 am

Latest Report: Apr 23, 2017 at 11:20 pm


Visibility: N/A

Pressure: 30.21 "Hg

Humidity: 70%

Dew Point: 27 °F

Location of WertheimLocation

Past Weather in Wertheim — Graph

°F

Wertheim Temperature Yesterday

Maximum temperature yesterday: 46 °F (at 7:20 pm)
Minimum temperature yesterday: 34 °F (at 5:20 am)
Average temperature yesterday: 40 °F

High & Low Weather Summary for the Past Weeks

 TemperatureHumidityPressure
High70 °F (Apr 10, 4:20 pm)100% (Apr 9, 2:20 am)30.54 "Hg (Apr 9, 2:20 am)
Low27 °F (Apr 20, 5:20 am)32% (Apr 9, 5:20 pm)29.89 "Hg (Apr 12, 7:20 pm)
Average44 °F66%30.16 "Hg
* Reported Apr 8 10:20 pm — Apr 23 10:20 pm, Wertheim, Weather by CustomWeather, © 2017

Note: Actual official high and low records may vary slightly from our data, if they occured in-between our weather recording intervals... More about our weather records

Advertising

Wertheim Weather History for the Previous 24 Hours

Scroll right to see more
 ConditionsComfort  
Time TempWeatherWind HumidityBarometerVisibility
10:20 pm
Sun, Apr 23
36 °FPartly cloudy.2 mph65%30.21 "HgN/A
9:20 pm39 °FPartly cloudy.2 mph56%30.21 "HgN/A
8:20 pm43 °FBroken clouds.2 mph49%30.21 "HgN/A
7:20 pm46 °FBroken clouds.6 mph43%30.21 "HgN/A
6:20 pm45 °FBroken clouds.6 mph42%30.21 "HgN/A
5:20 pm45 °FPartly sunny.5 mph46%30.21 "HgN/A
4:20 pm45 °FBroken clouds.7 mph49%30.21 "HgN/A
3:20 pm43 °FBroken clouds.6 mph49%30.21 "HgN/A
2:20 pm43 °FBroken clouds.8 mph49%30.21 "HgN/A
1:20 pm41 °FBroken clouds.9 mph49%30.21 "HgN/A
12:20 pm41 °FBroken clouds.8 mph49%30.24 "HgN/A
11:20 am41 °FPartly sunny.7 mph57%30.21 "HgN/A
10:20 am41 °FBroken clouds.10 mph53%30.21 "HgN/A
9:20 am39 °FScattered clouds.5 mph70%30.21 "HgN/A
8:20 am36 °FBroken clouds.6 mph75%30.21 "HgN/A
7:20 am34 °FScattered clouds.3 mph81%30.21 "HgN/A
6:20 am34 °FPassing clouds.5 mph81%30.18 "HgN/A
5:20 am34 °FPassing clouds.3 mph81%30.18 "HgN/A
4:20 am37 °FPassing clouds.3 mph75%30.18 "HgN/A
3:20 am37 °FPassing clouds.5 mph70%30.15 "HgN/A
2:20 am39 °FPassing clouds.7 mph70%30.18 "HgN/A
1:20 am39 °FPassing clouds.5 mph70%30.18 "HgN/A
12:20 am39 °FPassing clouds.3 mph70%30.18 "HgN/A
Weather by CustomWeather, © 2017

See weather overviewHow to use our weather pages